Location: Cicognara
(44.9500°N, 10.4667°E)
Time: 15:30:09
(UTC+00:00)

H-2A R/B - Pass Details

Date: 20 June 2021
Orbit: 574 x 597 km, 98.2° (Epoch: 03 August)

Event Time Altitude Azimuth Distance (km) Brightness Sun altitude
Rises 20:52:26 0° 20° (NNE) 2,795 7.5 -13.8°
Reaches altitude 10° 20:54:42 10° 28° (NNE) 1,892 6.4 -14.0°
Maximum altitude 20:58:35 41° 99° (E) 848 3.9 -14.4°
Enters shadow 21:00:25 25° 152° (SSE) 1,166 4.4 -14.6°
